Location: Lake Arresoe
(56.0000°N, 12.5000°E)
Time: 11:19:30
(UTC+02:00)

Resurs 1-4 Rocket - Pass Details

Date: 14 August 2020
Orbit: 799 x 815 km, 98.6° (Epoch: 23 September)

Event Time Altitude Azimuth Distance (km) Brightness Sun altitude
Rises 02:15:02 0° 19° (NNE) 3,334 7.0 -18.6°
Reaches altitude 10° 02:17:33 10° 28° (NNE) 2,396 5.8 -18.5°
Maximum altitude 02:22:29 38° 96° (E) 1,210 3.1 -18.3°
Enters shadow 02:25:31 21° 152° (SSE) 1,756 3.5 -18.2°
